User: anonymous   Login
Location: Helsinki
(60.1699°N, 24.9384°E)
Time: 03:24:08
(UTC+02:00)
Language:

Transit 2A Rocket - Orbit

View from above orbital plane
View from above orbital plane
View from above satellite
View from above satellite

Ground track
Ground track

The orbit data is extracted from the following two-line orbital elements,

1    47U 60007C   20300.08464781 -.00000037  00000-0  16875-4 0  9999
2    47  66.6650 165.6875 0231625 209.2976 149.4978 14.42106525153959
Epoch (UTC): 26 October 2020 02:01:53
Eccentricity: 0.0231625
inclination: 66.6650°
perigee height: 586 km
apogee height: 916 km
right ascension of ascending node: 165.6875°
argument of perigee: 209.2976°
revolutions per day: 14.42106525
mean anomaly at epoch: 149.4978°
orbit number at epoch: 15395

The dashed part of the orbit path shows where the satellite is in the earth's shadow,  

DLR